Lapse_Rate
6.5 6.7 6.7 6.8 7.2 7.8 8.4 9.0 9.6 9.2 8.2 8.4 8.2 8.0 8.5 9.5 9.3 9.1 8.2 8.2 8.1 8.2 8.2 7.8 8.0 7.9 7.8 7.7 7.2 6.7 6.4 6.2 6.1 6.0 5.9 5.9 5.9 5.8 5.8 5.8 5.8 5.8 5.8 5.8 5.8 5.7 5.7 5.8 5.8
6.4 6.7 6.8 6.8 7.3 8.6 9.0 9.4 9.1 9.0 8.9 7.6 7.9 8.2 8.4 8.6 8.4 7.4 7.4 8.1 8.3 8.3 8.1 8.0 7.8 7.9 7.9 7.8 7.3 6.9 6.5 6.4 6.2 6.1 6.0 6.0 5.9 5.9 5.9 5.9 5.9 5.9 5.9 5.9 6.1 6.0 6.0 5.9 5.8
6.7 6.8 6.5 7.0 7.4 7.9 9.5 9.4 9.5 8.9 7.6 7.7 8.0 7.9 8.2 8.2 7.3 7.7 7.6 8.2 8.2 8.3 8.1 8.2 7.9 7.9 7.9 7.9 7.5 7.0 6.8 6.6 6.5 6.3 6.1 6.1 6.0 6.0 6.0 6.0 6.1 6.1 6.1 6.1 6.1 6.1 6.1 6.0 5.9
6.2 6.3 6.7 7.0 7.7 8.0 7.9 9.3 8.5 9.0 7.6 7.6 7.9 7.6 7.7 7.6 7.2 8.2 8.6 8.7 8.5 8.4 8.3 8.0 7.9 7.7 7.8 7.8 7.4 7.0 6.8 6.7 6.6 6.5 6.3 6.1 6.1 6.1 6.2 6.2 6.2 6.2 6.3 6.2 6.2 6.2 6.2 6.3 6.4
6.3 6.4 6.9 7.4 7.7 8.2 7.7 7.6 7.2 7.9 8.2 8.1 8.0 8.1 7.7 7.0 7.3 8.6 8.7 8.6 8.6 8.6 8.3 8.0 7.9 7.7 7.7 7.7 7.4 7.2 7.0 6.8 6.8 6.6 6.4 6.2 6.2 6.2 6.2 6.2 6.3 6.4 6.4 6.4 6.4 6.4 6.4 6.4 6.5
6.3 6.7 7.1 7.5 7.8 7.9 7.9 6.9 7.2 7.3 8.1 8.8 8.2 8.1 7.8 6.9 6.9 8.6 8.8 8.5 8.5 8.6 8.4 8.2 7.9 7.8 7.7 7.5 7.5 7.2 7.1 7.0 6.9 6.8 6.6 6.4 6.5 6.4 6.5 6.5 6.5 6.5 6.4 6.5 6.5 6.7 6.6 6.6 6.7
6.4 6.9 7.2 7.5 8.0 8.4 7.7 6.7 7.2 7.2 8.3 9.1 9.2 8.1 8.3 7.1 7.2 7.8 8.5 8.7 8.5 8.6 8.6 8.3 8.0 7.8 7.6 7.6 7.5 7.2 7.2 7.1 7.0 7.0 6.8 6.7 6.7 6.7 6.7 6.7 6.8 6.8 6.7 6.7 6.7 6.8 6.8 6.8 6.8
6.6 7.0 7.2 7.4 7.7 7.7 8.8 6.7 6.5 7.2 7.2 9.2 8.2 8.0 8.5 7.0 7.1 7.1 7.6 8.5 8.5 8.2 8.6 8.4 8.1 8.0 7.8 7.6 7.6 7.4 7.3 7.2 7.1 7.0 6.9 6.9 7.0 7.0 7.0 6.9 6.8 6.8 6.9 6.8 6.8 6.8 6.9 6.8 6.8
6.9 6.9 7.0 7.3 7.6 7.9 8.5 8.6 6.7 6.8 6.7 7.5 8.5 7.8 7.5 6.9 6.8 7.1 7.2 8.1 8.1 7.1 8.4 8.3 8.1 8.1 7.9 7.7 7.7 7.8 7.5 7.3 7.2 7.0 7.0 7.1 7.2 7.2 7.1 7.1 6.9 7.0 6.9 7.0 6.9 6.9 6.8 6.7 6.9
6.9 6.9 7.0 7.5 7.8 8.4 9.4 9.3 8.3 7.1 7.2 6.7 6.9 7.8 7.9 7.3 6.9 6.9 7.2 7.3 7.6 7.0 7.5 8.4 8.0 8.1 7.9 7.7 7.7 7.7 7.8 7.5 7.2 7.2 7.2 7.3 7.3 7.4 7.3 7.2 7.2 7.2 7.0 6.9 7.1 7.0 6.9 6.8 6.9
7.0 6.7 7.4 7.6 8.0 8.4 8.9 9.4 9.1 8.5 7.1 7.2 6.2 6.8 6.9 7.0 6.9 6.9 7.3 7.0 6.8 7.0 6.9 7.9 8.1 8.0 7.8 7.7 7.6 7.8 7.9 7.9 7.5 7.4 7.4 7.4 7.4 7.5 7.4 7.4 7.3 7.2 7.2 7.1 7.3 7.0 7.0 6.9 6.7
7.3 7.3 7.4 7.6 7.9 8.4 8.4 8.6 8.6 9.0 8.8 7.4 6.5 6.4 6.4 6.7 6.9 6.8 6.9 6.9 6.9 6.9 7.0 6.8 8.1 7.9 7.8 7.5 7.6 7.7 8.1 8.1 7.8 7.6 7.6 7.5 7.5 7.5 7.5 7.5 7.5 7.4 7.3 7.2 7.4 7.4 7.2 6.9 7.1
7.3 7.4 7.5 7.5 7.4 7.5 8.1 8.2 8.2 8.3 8.4 8.2 6.5 6.4 6.9 7.4 7.0 6.7 6.6 6.8 7.0 7.0 6.4 6.4 7.8 8.3 8.1 7.9 7.6 7.7 8.1 8.0 8.0 7.8 7.8 7.6 7.6 7.6 7.6 7.6 7.5 7.4 7.1 7.4 7.6 7.8 7.5 7.5 7.5
7.5 7.3 7.2 7.3 7.5 7.3 7.7 8.0 8.2 7.8 8.1 8.0 7.0 7.0 7.1 7.2 7.6 6.9 6.4 6.5 6.6 7.1 6.9 6.6 7.2 8.1 7.9 7.9 8.3 8.2 8.0 7.8 8.0 7.9 8.0 7.9 7.8 7.7 7.8 7.9 7.7 7.4 7.1 7.2 7.6 7.8 7.6 7.6 7.9
7.0 7.0 7.0 7.2 7.5 7.4 7.7 7.6 7.6 8.0 8.4 8.0 7.5 6.9 7.7 7.3 7.3 7.4 6.7 6.2 6.6 7.0 7.1 6.4 6.5 7.6 7.9 7.6 7.3 7.5 7.8 7.8 7.8 7.8 8.0 8.2 8.1 8.1 8.0 7.8 7.8 7.3 6.9 7.0 7.5 7.4 7.6 7.6 7.7
7.0 7.3 7.5 7.9 8.0 7.7 7.5 7.4 7.9 8.2 8.2 8.1 7.7 7.3 7.5 7.2 7.7 7.3 7.2 6.6 6.3 6.8 6.8 6.9 6.6 6.3 7.0 7.4 7.6 7.4 7.7 7.5 7.7 7.8 7.8 7.7 7.9 7.4 7.3 7.5 7.5 7.1 7.1 7.3 7.4 7.5 7.8 7.8 7.7
7.8 8.0 8.4 8.8 8.3 7.8 7.9 7.7 8.0 8.5 7.6 7.5 7.4 7.5 7.0 7.4 7.4 7.0 7.1 6.9 6.5 6.5 6.6 6.7 6.6 6.6 6.4 6.4 6.8 7.1 7.4 7.4 7.6 7.7 7.5 7.4 7.3 7.3 7.1 7.6 7.5 7.2 7.3 7.4 7.5 7.9 7.8 7.5 7.7
9.6 9.6 9.1 8.8 9.2 7.6 7.6 7.9 8.1 8.6 7.4 7.2 7.2 7.1 7.1 7.1 7.6 7.2 6.8 6.5 6.5 6.5 6.4 6.5 6.4 6.8 6.7 6.4 6.3 6.7 7.0 7.3 7.3 7.5 7.7 7.5 7.6 7.3 7.6 7.9 7.6 7.4 7.3 7.5 8.0 7.7 7.6 8.1 8.0
7.8 7.9 8.3 8.5 8.6 8.1 7.6 7.8 8.1 8.3 8.3 7.5 7.3 7.2 7.0 6.9 7.1 6.8 6.1 6.4 6.2 6.5 6.6 6.7 6.2 6.4 6.4 6.5 6.2 6.5 7.1 6.7 7.0 7.4 7.7 7.6 7.5 7.5 7.4 7.5 7.9 7.6 7.3 7.7 7.7 7.8 7.8 7.9 8.1
7.4 7.8 8.1 8.3 8.3 7.9 7.6 7.4 7.8 7.9 7.9 7.8 7.7 7.6 7.4 7.0 6.7 6.5 5.6 6.4 6.6 6.3 6.5 6.5 6.3 6.2 6.6 6.5 6.2 6.6 6.9 6.7 7.0 6.9 7.6 7.6 7.5 7.5 7.6 7.7 7.7 7.7 7.7 7.9 8.1 7.9 8.0 8.2 8.0
7.7 7.9 8.1 8.1 8.5 7.7 7.5 7.4 7.9 8.2 8.1 7.8 7.7 7.7 7.8 7.5 7.0 6.3 6.0 5.7 6.4 7.0 6.2 6.2 5.9 6.2 6.4 6.7 6.4 6.9 7.0 7.0 6.8 7.0 7.2 7.6 7.4 7.1 7.5 7.9 7.6 7.5 8.0 8.1 8.1 8.0 8.1 8.0 7.6
8.0 8.3 8.1 7.9 7.6 7.9 9.0 8.6 8.6 8.6 8.1 7.8 7.7 7.5 7.5 6.9 6.6 6.3 5.6 5.7 5.6 6.9 6.6 6.4 6.4 6.0 6.2 5.8 6.2 6.6 7.2 6.9 7.0 7.1 7.1 7.1 7.2 7.2 7.0 7.1 7.6 8.0 8.2 8.3 8.1 7.4 8.0 7.9 7.5
7.8 8.1 7.7 7.8 7.7 7.9 7.9 8.6 8.3 8.9 9.2 8.6 7.8 7.6 7.2 6.7 6.6 5.8 5.6 6.3 6.3 6.4 6.0 6.3 6.2 6.7 6.9 6.7 6.4 6.4 6.5 7.2 7.1 7.1 7.1 6.6 6.9 7.1 7.3 7.3 7.6 8.1 8.4 8.3 6.6 7.9 7.9 7.6 7.6
7.6 7.9 7.8 8.0 8.3 9.1 8.6 9.4 8.7 9.6 9.2 8.7 7.7 7.2 7.2 6.8 6.4 5.8 5.6 6.2 6.4 6.4 6.1 6.0 6.2 6.4 6.2 6.9 7.1 6.9 6.9 7.4 7.8 7.6 7.5 7.1 7.1 6.8 6.8 6.4 7.3 7.2 8.0 8.2 7.9 7.8 7.7 7.7 7.7
7.9 8.4 9.2 9.5 9.6 9.6 9.5 9.5 9.5 9.6 9.2 9.4 8.2 7.7 7.1 6.8 6.7 6.3 6.0 5.8 5.7 6.0 6.2 6.5 6.2 6.0 6.3 6.4 6.7 6.9 7.1 7.3 7.5 7.5 7.1 7.0 7.0 7.0 7.2 6.9 6.4 7.1 8.2 8.0 7.9 7.8 7.9 7.6 8.1
9.2 8.9 9.3 8.9 9.1 9.6 9.4 9.5 9.5 9.4 9.5 8.5 8.0 7.7 7.3 7.0 7.2 6.5 6.0 5.6 5.4 5.3 5.9 6.3 6.3 6.3 6.4 6.8 6.5 6.5 6.8 7.0 7.2 7.5 7.5 7.4 7.3 7.4 7.4 7.2 7.7 8.1 8.4 8.4 8.3 7.9 8.1 7.7 7.8
9.3 9.2 9.1 8.6 9.1 9.3 9.3 9.4 9.3 9.0 9.0 8.3 8.0 7.7 7.4 7.1 6.8 6.3 6.3 6.2 5.8 5.4 5.5 6.0 6.3 6.3 6.3 6.2 6.1 6.4 6.2 6.6 7.1 7.3 7.4 7.5 7.7 7.7 7.9 8.1 8.5 8.5 8.6 8.5 8.5 8.3 8.2 8.0 7.7
8.9 9.1 8.8 7.4 8.4 9.3 9.7 9.6 9.5 9.3 8.7 8.3 8.0 7.8 7.6 7.1 6.9 6.7 6.6 6.3 5.9 5.5 5.2 6.0 6.1 6.2 6.1 6.1 6.1 6.0 6.1 6.3 6.3 6.6 7.1 7.4 7.8 7.9 8.1 8.2 8.6 8.7 8.6 8.7 8.3 8.4 8.4 8.3 8.2
9.0 8.7 8.7 9.3 9.2 8.9 9.3 9.4 8.4 8.1 8.0 8.7 8.9 8.0 7.6 7.5 7.1 6.9 6.8 6.5 6.1 5.9 5.5 5.2 5.1 6.3 6.3 6.2 6.1 6.0 6.0 6.0 6.0 6.1 6.5 6.8 7.3 7.4 7.7 7.9 8.1 8.5 8.5 8.5 8.2 8.1 8.4 8.3 8.1
8.6 8.8 8.6 8.3 8.2 8.9 9.2 9.5 8.4 8.4 8.1 8.4 8.6 8.2 8.0 7.8 7.4 6.9 6.7 6.6 6.4 6.1 5.8 5.4 5.3 6.0 6.1 6.2 6.2 6.1 6.1 5.9 5.9 5.9 6.1 6.2 6.7 7.1 7.2 7.6 8.0 8.1 8.4 8.3 8.1 8.1 8.1 7.8 7.7
Wind_Speed
21 11 8 7 8 8 16 18 1 2 5 4 7 5 9 15 12 4 6 8 8 18 22 24 21 20 16 15 18 18 18 18 18 18 16 15 15 15 15 14 13 11 10 10 9 8 8 7 7
13 11 7 7 9 13 13 16 6 9 8 4 9 11 11 12 8 6 10 10 7 17 20 25 22 20 19 15 15 18 19 18 17 17 18 17 16 15 15 14 13 11 10 9 8 8 8 8 7
13 9 8 9 12 16 14 11 3 5 1 8 4 3 7 6 11 10 13 7 3 15 20 23 23 23 20 16 16 17 19 19 19 18 17 17 16 14 14 13 13 12 11 10 9 8 8 8 7
6 8 6 10 18 16 25 15 4 6 6 5 6 7 5 7 11 13 14 9 7 15 19 24 22 23 21 17 14 15 17 18 18 19 18 18 16 15 14 13 11 10 10 10 10 8 7 6 6
8 7 11 15 17 19 15 17 18 11 12 7 8 12 3 6 12 14 11 7 11 15 17 24 21 21 23 19 15 13 13 16 17 17 17 17 16 15 13 11 11 9 8 9 9 9 7 6 6
10 10 15 16 20 15 6 8 21 19 14 11 5 14 7 9 14 12 11 5 12 15 17 21 21 17 20 21 16 14 11 11 13 13 14 14 13 12 12 11 10 10 9 8 8 8 7 6 6
16 14 19 22 21 16 12 7 12 19 18 10 6 4 4 13 14 8 6 3 9 15 16 16 24 20 16 18 17 14 13 10 9 10 12 13 12 11 10 10 10 9 8 8 7 8 8 7 7
14 15 26 23 18 22 12 13 9 12 25 4 3 8 3 12 13 13 7 2 10 15 16 16 17 23 22 20 14 15 12 11 9 9 9 10 11 9 9 9 9 8 8 8 7 8 8 8 8
20 18 21 25 24 19 15 14 13 13 16 26 9 7 7 8 14 11 9 5 7 12 14 15 18 17 21 22 19 14 13 11 10 10 9 11 13 13 13 13 14 12 10 9 8 9 8 8 10
20 17 27 25 22 22 22 19 14 12 14 21 24 15 4 10 15 13 8 7 10 13 14 14 16 17 17 16 19 20 18 17 16 17 16 16 15 13 15 15 14 13 11 10 10 10 10 11 14
22 24 24 21 23 24 24 24 13 16 14 15 21 27 13 12 15 12 13 6 9 11 11 13 13 12 16 14 12 13 15 16 16 19 17 16 14 13 12 9 12 12 13 13 15 13 12 15 14
23 25 23 23 26 25 22 19 21 22 19 16 12 26 22 17 13 14 15 5 6 8 15 12 14 10 11 10 11 11 10 11 9 18 17 11 8 6 6 7 11 11 12 11 11 11 12 14 14
21 21 20 22 19 23 23 22 24 24 17 12 11 18 28 19 16 16 12 4 3 4 5 15 11 10 8 9 9 9 10 11 12 14 17 16 9 7 7 6 8 8 10 10 7 7 7 9 10
16 13 18 22 21 20 23 23 22 27 21 22 17 19 27 23 16 12 11 10 1 1 2 4 11 11 12 10 10 5 6 9 11 13 14 17 13 7 8 7 7 7 10 9 8 8 8 7 8
13 17 18 19 19 21 19 25 28 25 23 22 18 19 21 16 12 9 6 6 4 2 5 2 9 11 13 14 12 9 9 8 9 9 11 15 16 9 9 9 9 9 11 8 8 7 7 6 8
16 18 18 20 23 22 19 26 25 25 23 24 16 19 16 20 13 6 3 1 3 2 2 7 4 9 9 10 8 9 11 8 10 8 13 13 15 15 10 9 10 10 9 9 9 9 9 8 7
17 15 18 19 5 8 18 25 20 22 11 12 14 16 16 21 18 9 7 5 2 3 4 5 4 6 3 8 10 10 10 10 10 11 10 10 16 18 10 10 9 10 9 8 9 9 9 7 6
12 15 12 11 8 13 17 20 19 14 13 15 15 15 16 16 21 13 9 6 3 4 5 8 7 6 5 3 6 8 8 9 8 10 9 15 15 15 10 12 10 10 10 10 11 9 10 8 5
13 16 15 16 9 10 13 19 20 18 18 16 16 16 15 16 13 10 9 6 7 4 6 6 5 6 3 3 8 8 8 10 8 10 11 11 14 17 14 12 11 12 12 11 11 10 9 9 6
14 17 17 17 14 13 16 20 20 20 21 19 19 18 17 17 14 12 6 7 3 2 4 2 0 3 5 3 3 8 4 6 8 8 11 11 11 12 13 14 13 14 12 13 12 11 10 9 6
16 16 16 17 15 15 16 24 25 23 28 24 24 21 20 20 18 15 10 9 5 3 1 1 3 5 6 3 5 5 4 6 7 7 6 9 14 13 15 14 13 13 14 12 13 12 12 8 8
16 14 15 10 13 14 16 17 18 18 13 14 13 13 13 6 8 10 11 9 6 2 1 3 3 3 7 5 5 7 7 8 8 9 5 8 11 15 17 17 16 16 12 14 11 11 10 8 9
16 17 10 15 16 18 21 14 18 20 17 10 9 11 13 13 12 8 7 4 5 2 4 3 4 6 6 5 6 7 9 9 7 7 7 6 7 13 14 16 18 15 13 12 13 9 7 6 9
13 13 15 18 16 17 22 18 18 16 15 13 10 8 7 6 10 10 10 8 7 5 5 3 4 4 6 7 8 9 11 11 9 10 6 6 7 8 9 19 19 18 15 13 12 10 11 11 10
13 15 13 16 15 17 18 7 12 6 4 2 15 11 8 6 8 12 10 7 5 6 6 5 5 4 5 7 9 10 10 10 12 11 9 10 9 12 14 20 18 16 16 13 12 13 11 9 11
17 16 12 18 16 18 4 8 8 8 12 8 6 9 5 9 8 3 5 7 8 7 6 7 6 6 7 7 8 9 10 10 10 11 11 11 11 13 13 14 18 18 16 15 13 11 11 11 11
17 18 19 15 19 17 20 28 26 15 12 8 10 10 10 8 7 8 12 11 10 7 9 7 8 8 7 8 8 9 10 11 11 12 10 11 12 12 15 14 13 15 16 16 15 12 11 10 11
18 18 15 7 13 21 19 21 15 18 15 15 13 10 10 5 11 13 13 12 11 10 9 11 11 9 10 9 9 10 11 11 12 11 13 13 13 15 15 15 14 14 16 17 14 12 11 11 10
15 17 20 18 15 15 17 12 14 10 3 10 11 8 6 13 10 12 12 11 12 12 12 10 9 12 12 11 11 10 11 13 13 12 12 14 13 14 16 17 14 15 16 15 13 12 13 14 13
16 22 18 11 11 14 16 18 7 0 7 11 7 8 13 12 10 11 12 11 12 12 12 9 9 11 13 13 13 13 11 13 13 13 15 14 16 14 16 16 16 16 15 14 16 16 15 15 15
Wind_Direction
288 278 298 274 248 230 249 236 237 37 240 226 337 278 268 313 349 23 107 40 104 140 158 165 152 148 155 162 158 155 153 154 155 153 152 151 150 150 144 143 146 147 142 142 139 134 131 130 124
301 302 253 276 257 253 229 245 156 238 54 344 255 238 248 269 30 16 357 16 115 136 159 171 157 152 153 162 162 156 156 156 157 157 158 156 155 152 149 150 150 151 149 146 149 146 143 140 137
269 279 279 246 232 250 259 16 24 205 90 260 279 3 349 13 24 337 330 30 193 149 163 170 165 154 152 162 163 163 159 159 162 162 161 161 157 155 155 156 157 160 160 160 158 158 156 152 150
278 236 237 250 262 224 262 297 46 321 227 227 267 265 151 71 357 341 318 303 226 171 168 152 169 156 151 160 166 167 164 163 166 164 166 164 162 163 161 160 160 164 169 169 163 167 172 169 162
245 264 263 248 249 264 200 241 291 293 280 254 228 256 232 81 13 351 323 271 204 181 171 157 170 165 153 156 166 166 173 168 170 169 168 165 167 162 162 162 162 168 179 182 174 174 182 186 187
257 245 258 250 241 238 207 248 250 266 276 261 245 248 254 68 6 353 341 264 200 181 171 158 168 179 160 155 162 165 171 174 172 172 168 166 165 165 164 166 170 175 183 196 190 181 191 203 209
248 254 246 256 265 246 194 227 270 244 265 277 273 227 247 39 348 348 12 314 216 180 175 156 176 183 170 157 157 163 165 168 176 168 166 163 161 165 171 174 178 180 194 197 205 202 196 206 223
244 250 255 256 254 260 232 196 231 272 264 253 264 241 268 25 333 331 52 320 216 183 177 159 178 186 186 181 163 164 164 162 168 164 165 162 151 165 182 183 189 188 199 209 212 222 217 214 222
234 245 248 248 251 251 254 216 204 248 220 284 252 276 331 335 330 329 338 136 237 182 182 170 175 185 192 187 181 169 169 168 169 173 174 176 202 192 192 204 181 190 206 209 216 223 234 234 237
228 238 244 253 260 263 260 251 206 208 239 219 286 258 200 347 326 330 332 330 182 208 193 179 182 184 194 192 180 194 197 202 205 207 200 210 213 207 209 199 177 193 203 213 219 222 234 241 257
226 243 255 254 253 260 267 260 249 217 224 247 215 272 317 314 313 319 322 6 312 217 201 195 178 180 200 200 182 189 197 199 203 211 211 202 210 215 201 192 186 211 204 224 208 217 232 249 251
248 246 257 264 268 270 267 273 266 262 236 210 257 235 267 294 302 310 307 5 297 286 193 199 174 197 201 210 193 187 197 192 199 202 202 218 214 207 229 213 203 188 197 215 235 220 216 232 245
242 256 261 266 258 275 274 251 255 261 255 226 236 256 247 258 297 303 299 276 263 253 283 194 199 191 228 249 236 209 196 200 202 200 195 212 212 221 203 231 234 206 210 204 225 233 238 235 235
270 261 268 258 256 255 257 259 261 256 260 251 226 249 257 236 270 293 305 298 228 224 111 258 197 180 203 233 264 249 230 209 208 206 201 198 217 203 211 209 215 238 228 231 231 227 236 227 239
263 270 260 255 261 252 258 258 250 255 259 252 234 242 252 235 236 272 288 311 354 284 285 319 200 184 191 208 227 244 226 243 213 218 202 193 207 227 206 207 213 221 227 231 242 257 234 244 246
252 251 257 248 233 237 238 257 253 247 246 246 243 250 244 222 221 249 228 237 4 21 26 271 158 170 182 200 221 226 222 220 232 231 217 212 196 222 198 215 206 219 219 218 225 224 229 214 211
229 252 256 245 183 256 249 255 259 253 219 243 254 255 249 251 217 208 200 204 115 42 17 355 314 90 156 197 226 226 234 219 226 219 223 208 219 210 221 223 213 211 215 223 224 224 222 221 196
287 249 226 266 227 199 250 256 251 251 208 238 246 239 251 246 235 189 192 148 186 102 39 13 16 40 9 268 209 224 220 230 218 223 210 209 215 218 209 218 220 203 222 221 224 222 227 243 185
313 289 284 287 267 271 263 272 271 258 243 234 239 241 244 242 250 205 168 243 157 112 94 31 2 339 116 244 232 215 203 217 207 226 226 215 199 212 208 222 212 207 223 228 222 218 232 231 194
265 266 266 267 263 270 278 273 274 271 264 256 250 248 227 229 216 231 203 240 231 80 97 122 211 294 287 183 219 264 248 211 198 199 214 212 227 219 227 221 225 210 215 222 223 220 219 219 198
253 261 276 282 298 287 284 269 257 252 238 246 243 242 243 214 229 210 221 232 227 183 64 323 297 299 288 316 270 222 251 269 266 227 217 177 214 218 225 225 235 226 223 211 213 218 219 222 196
271 276 283 266 274 267 280 289 283 284 233 217 239 221 236 183 210 226 207 210 221 218 210 275 290 305 295 305 297 281 266 254 232 242 224 187 194 210 224 233 228 238 225 225 199 215 226 228 243
283 299 283 274 272 280 268 264 270 255 247 247 231 198 198 187 191 196 212 178 214 194 224 232 260 268 254 277 297 278 272 265 258 250 252 171 180 201 219 235 233 238 234 224 240 192 182 227 253
285 280 261 260 254 255 258 251 266 262 201 171 182 185 208 203 189 191 187 209 215 207 211 209 260 260 277 267 256 270 285 289 294 307 327 268 237 208 201 240 241 223 226 229 203 211 185 193 235
232 258 265 259 244 246 252 247 269 349 77 286 170 204 208 228 227 218 218 247 229 238 233 225 214 253 271 260 259 255 263 277 283 281 276 276 267 234 202 214 230 225 223 216 220 210 216 190 216
258 243 270 282 285 294 337 246 253 247 188 169 295 267 227 222 237 233 267 273 280 266 245 269 269 272 284 293 259 252 260 261 257 247 253 257 252 256 259 205 212 220 219 220 223 216 205 201 207
263 270 261 289 270 271 276 283 283 174 174 199 213 206 215 229 248 258 267 264 263 276 277 257 272 277 274 283 289 280 268 263 263 269 274 271 266 262 273 250 210 215 216 220 212 215 202 195 208
263 275 273 249 262 264 260 259 270 199 190 191 200 208 230 251 262 271 279 280 269 265 266 257 257 273 284 279 268 275 278 277 276 271 252 253 264 274 275 269 227 213 219 222 204 207 201 192 201
248 242 252 260 248 254 274 284 69 68 58 223 200 207 250 264 281 294 290 286 284 267 263 268 275 283 284 286 285 273 272 273 275 271 267 277 252 246 249 250 246 227 219 209 201 206 198 197 203
244 268 232 246 263 269 275 271 191 151 238 223 219 230 261 285 289 280 287 289 287 284 273 272 278 281 283 284 288 291 282 276 269 268 272 270 270 256 249 237 237 231 220 208 201 203 200 198 199